Vorticity
8 6 7 10 7 7 5 7 4 4 8 6 8 4 3 4 4 5 3 3 7 7 8 11 8 3 3 4 5 2 6 6 7 7 11 12 21 13 5 9 9 9 9
7 6 5 6 6 3 5 5 5 4 3 7 2 7 10 -0 6 6 6 4 5 6 5 3 6 9 9 6 5 5 2 5 7 5 5 10 3 5 9 2 4 9 9
6 6 7 6 7 5 7 8 9 6 3 0 5 7 5 12 4 6 5 4 6 3 6 5 5 6 10 7 7 4 7 8 9 11 8 2 9 17 11 10 5 7 8
8 9 9 7 7 8 8 7 8 9 4 5 -1 0 0 3 6 13 7 5 1 5 1 3 7 8 5 5 4 6 9 11 5 4 6 8 10 11 10 8 7 8 7
11 10 10 9 9 6 7 8 8 5 7 5 -3 -0 2 4 6 9 14 7 5 5 8 4 3 4 4 5 6 4 7 5 7 8 5 14 3 3 4 6 7 4 7
8 8 5 3 2 2 2 1 1 -0 1 0 0 0 1 6 7 5 9 13 7 3 3 4 4 3 4 6 6 4 5 5 9 8 7 6 7 5 7 5 5 6 5
7 4 3 3 4 7 7 6 4 4 3 0 4 3 2 1 1 6 6 10 10 8 5 2 3 4 3 6 4 5 5 8 6 6 6 5 5 6 5 6 6 5 5
9 11 10 9 12 18 15 16 20 20 19 16 18 5 0 3 3 9 5 7 8 9 7 5 2 7 5 6 5 6 4 2 8 6 5 7 6 6 6 4 5 5 5
16 14 12 14 11 9 10 12 14 13 10 12 10 21 20 9 9 7 5 5 8 10 9 7 5 3 3 4 7 7 8 5 6 6 9 7 7 5 4 4 5 7 4
16 15 14 12 15 9 9 12 17 18 17 15 12 15 14 20 8 7 7 8 7 7 6 9 7 7 5 8 7 6 1 11 7 8 9 6 3 12 9 8 -6 6 5
11 6 7 13 18 19 18 15 15 18 20 10 15 15 11 11 22 8 7 8 5 4 7 9 9 6 7 9 6 11 14 9 10 9 5 8 -7 -1 7 6 4 6 9
17 15 25 25 29 25 14 13 14 19 16 15 32 15 12 12 15 14 11 5 5 6 6 8 8 9 9 8 8 5 21 -1 9 6 -3 -6 5 2 10 5 15 -0 11
19 28 21 28 18 18 20 17 14 26 9 22 28 21 10 15 15 15 11 12 6 10 7 7 7 7 7 4 6 -16 64 -1 3 -1 5 -13 17 0 16 4 6 7 9
25 45 28 13 34 11 12 11 28 22 18 23 36 22 26 16 23 14 13 14 9 7 7 7 7 3 16 -0 22 2 -13 3 14 -2 -3 6 11 13 4 12 5 10 9
21 41 43 28 28 23 18 19 13 25 19 26 14 28 31 25 22 11 10 11 10 10 7 7 8 30 2 9 11 28 -12 5 9 5 14 17 9 8 4 8 8 8 11
32 31 40 23 24 24 29 23 44 25 15 13 24 25 18 17 23 10 10 13 13 9 7 6 7 1 2 -19 30 2 -6 5 19 1 15 11 5 10 9 8 12 12 6
37 22 12 13 16 20 14 7 4 11 14 17 24 20 23 19 10 7 10 14 11 12 6 10 5 33 -20 11 42 37 -16 6 16 13 7 11 10 9 12 11 7 5 5
17 38 26 12 11 7 12 15 14 31 25 -2 9 -2 20 8 7 14 13 9 5 -9 18 46 -3 7 13 12 -8 2 13 7 8 11 9 10 11 10 6 5 4 4 5
6 11 19 34 33 26 21 22 20 6 24 26 19 13 14 13 15 17 14 8 -20 38 10 3 -8 14 28 4 12 17 10 11 8 10 8 10 7 6 5 5 4 4 4
5 2 11 22 18 18 19 16 19 29 22 18 16 10 8 7 -0 13 20 -3 20 13 15 -10 31 16 7 7 4 8 8 8 12 13 8 4 4 3 3 4 4 0 -5
16 17 17 10 7 -3 17 13 9 23 7 -2 15 26 52 -10 3 21 14 7 -10 -25 8 10 9 6 6 10 11 11 12 11 7 5 4 3 2 1 1 1 -1 2 7
30 12 10 12 5 11 23 7 -0 -11 32 34 24 14 1 -13 18 1 11 23 10 14 10 7 5 7 9 11 11 10 7 3 3 4 2 1 -1 -1 -1 0 5 30 59
24 14 -1 20 19 20 15 10 2 -3 7 6 15 -3 19 18 14 5 7 7 7 6 7 7 10 12 13 11 6 4 4 5 5 4 4 4 2 -1 4 21 45 59 45
7 9 10 13 17 10 14 -1 1 2 11 18 -5 7 7 8 6 4 6 7 7 8 11 11 11 11 6 4 4 6 5 3 2 4 4 2 -0 9 32 48 58 60 21
9 9 8 9 8 6 10 12 12 7 6 7 8 6 4 4 5 5 5 7 10 10 10 10 9 4 5 4 5 5 2 2 4 2 -2 -1 19 46 65 74 29 10 12
4 4 14 12 12 10 10 9 9 8 6 5 5 7 8 7 8 9 10 9 9 12 10 5 5 4 2 4 4 4 3 5 2 -1 1 24 68 77 32 6 12 9 6
Height
5752 5754 5756 5759 5761 5762 5763 5766 5766 5767 5770 5772 5775 5775 5777 5775 5778 5781 5782 5783 5785 5782 5780 5780 5782 5782 5781 5780 5779 5778 5776 5774 5772 5770 5768 5766 5764 5762 5761 5759 5757 5755 5753
5744 5745 5747 5750 5752 5754 5755 5756 5759 5760 5761 5764 5766 5767 5768 5766 5767 5771 5776 5777 5777 5774 5771 5772 5774 5773 5773 5772 5772 5770 5769 5767 5765 5763 5761 5759 5757 5754 5752 5750 5748 5746 5743
5737 5738 5739 5740 5742 5745 5747 5748 5749 5751 5753 5755 5757 5760 5760 5760 5761 5762 5766 5769 5769 5764 5763 5764 5765 5765 5765 5764 5764 5763 5762 5759 5757 5755 5753 5751 5748 5746 5743 5741 5739 5736 5733
5726 5728 5730 5731 5732 5734 5736 5737 5739 5741 5743 5745 5748 5750 5752 5753 5753 5753 5754 5757 5758 5759 5755 5755 5757 5758 5757 5757 5756 5754 5753 5751 5750 5747 5745 5742 5740 5738 5736 5732 5730 5727 5724
5718 5719 5720 5721 5722 5723 5724 5726 5728 5731 5733 5734 5737 5739 5741 5744 5744 5743 5743 5745 5748 5748 5748 5747 5748 5749 5749 5748 5747 5745 5744 5742 5741 5739 5737 5734 5731 5729 5726 5723 5720 5717 5713
5708 5709 5710 5710 5710 5710 5710 5711 5713 5716 5718 5720 5725 5727 5730 5733 5734 5735 5735 5735 5736 5737 5738 5740 5740 5740 5740 5739 5738 5737 5735 5733 5732 5730 5728 5725 5723 5720 5717 5714 5710 5706 5701
5696 5697 5696 5695 5693 5692 5693 5694 5696 5699 5700 5702 5708 5713 5717 5719 5721 5723 5725 5723 5724 5727 5729 5729 5730 5730 5731 5729 5729 5728 5726 5724 5722 5721 5718 5716 5713 5710 5707 5704 5700 5697 5693
5682 5681 5679 5678 5676 5674 5673 5675 5677 5680 5681 5684 5688 5694 5701 5703 5706 5709 5711 5713 5713 5716 5717 5719 5720 5720 5720 5720 5720 5718 5717 5715 5712 5711 5708 5705 5702 5699 5696 5692 5688 5685 5680
5666 5664 5661 5658 5656 5654 5654 5656 5659 5662 5664 5667 5672 5676 5681 5685 5688 5693 5699 5703 5702 5704 5706 5708 5709 5710 5710 5710 5709 5708 5707 5705 5703 5701 5698 5695 5691 5687 5683 5679 5674 5670 5667
5649 5646 5643 5640 5637 5635 5635 5637 5640 5643 5645 5648 5654 5660 5663 5667 5672 5679 5687 5690 5690 5693 5696 5698 5698 5700 5700 5700 5699 5698 5697 5696 5693 5690 5687 5683 5679 5675 5670 5665 5660 5656 5651
5632 5628 5624 5620 5616 5616 5616 5618 5621 5623 5626 5630 5636 5642 5650 5653 5658 5665 5670 5674 5679 5683 5685 5687 5688 5689 5690 5690 5689 5688 5687 5682 5682 5679 5676 5672 5667 5662 5657 5651 5646 5640 5634
5613 5605 5600 5598 5596 5595 5596 5599 5602 5604 5606 5610 5615 5622 5629 5636 5643 5648 5656 5661 5668 5672 5674 5676 5679 5680 5680 5679 5678 5678 5679 5676 5671 5667 5663 5660 5655 5650 5644 5638 5631 5625 5619
5596 5587 5581 5580 5579 5577 5580 5584 5587 5589 5590 5593 5598 5602 5610 5618 5627 5634 5644 5652 5656 5660 5665 5668 5670 5670 5670 5670 5667 5665 5664 5663 5660 5655 5652 5647 5641 5636 5630 5624 5617 5611 5604
5580 5571 5566 5565 5564 5564 5567 5569 5575 5579 5580 5582 5584 5590 5598 5606 5614 5621 5634 5642 5647 5652 5656 5659 5660 5662 5661 5662 5653 5657 5656 5652 5648 5645 5640 5634 5628 5622 5616 5609 5603 5595 5589
5571 5562 5556 5555 5556 5557 5560 5563 5566 5568 5570 5572 5578 5584 5593 5602 5609 5617 5628 5635 5639 5644 5649 5651 5652 5649 5654 5653 5652 5647 5643 5642 5638 5633 5627 5620 5614 5609 5602 5594 5587 5580 5572
5567 5560 5554 5552 5553 5554 5555 5556 5559 5561 5564 5570 5576 5583 5592 5598 5604 5612 5621 5627 5633 5637 5641 5643 5646 5644 5645 5643 5640 5637 5635 5631 5627 5622 5615 5608 5601 5594 5587 5579 5571 5563 5555
5568 5562 5558 5555 5554 5555 5556 5557 5558 5561 5566 5571 5577 5583 5589 5594 5601 5609 5616 5622 5627 5631 5633 5635 5636 5633 5632 5630 5629 5627 5625 5621 5614 5608 5602 5594 5586 5579 5572 5564 5556 5547 5537
5574 5566 5562 5560 5558 5558 5557 5557 5559 5562 5567 5573 5581 5582 5588 5593 5600 5607 5612 5617 5622 5626 5628 5623 5628 5628 5625 5624 5622 5618 5613 5607 5601 5595 5588 5580 5573 5565 5557 5549 5541 5531 5519
5581 5574 5568 5564 5561 5560 5560 5561 5563 5567 5568 5572 5578 5582 5588 5594 5600 5605 5609 5613 5618 5614 5619 5619 5620 5618 5616 5615 5611 5607 5601 5595 5587 5580 5573 5567 5560 5551 5543 5535 5525 5514 5499
5585 5581 5575 5571 5569 5568 5567 5568 5569 5571 5574 5577 5581 5584 5589 5595 5601 5604 5604 5607 5610 5611 5611 5611 5610 5609 5607 5604 5600 5595 5589 5581 5575 5568 5560 5553 5545 5535 5526 5514 5504 5492 5478
5588 5584 5581 5578 5575 5574 5574 5573 5574 5577 5578 5582 5586 5587 5587 5596 5599 5602 5603 5605 5606 5605 5606 5605 5602 5600 5599 5594 5588 5583 5576 5569 5563 5555 5547 5538 5529 5519 5507 5494 5481 5467 5453
5590 5588 5584 5582 5581 5579 5580 5580 5580 5582 5581 5583 5586 5590 5592 5595 5597 5598 5600 5600 5601 5602 5600 5598 5596 5592 5586 5581 5576 5568 5562 5557 5551 5543 5534 5524 5513 5500 5486 5472 5457 5441 5426
5593 5591 5589 5586 5585 5584 5583 5584 5585 5586 5586 5588 5590 5591 5593 5594 5595 5596 5596 5596 5596 5595 5592 5589 5586 5581 5575 5570 5564 5558 5552 5545 5537 5528 5516 5506 5494 5481 5464 5447 5432 5419 5410
5597 5595 5593 5590 5588 5587 5586 5587 5588 5588 5588 5589 5590 5590 5592 5592 5592 5592 5591 5591 5589 5586 5583 5579 5574 5569 5565 5560 5555 5547 5539 5530 5521 5511 5499 5487 5473 5458 5441 5425 5415 5408 5405
5598 5597 5595 5594 5593 5592 5591 5591 5591 5590 5590 5590 5590 5589 5589 5589 5588 5587 5585 5583 5580 5578 5574 5569 5565 5561 5556 5550 5542 5534 5526 5517 5507 5494 5482 5467 5451 5434 5421 5413 5409 5405 5402
5599 5597 5597 5596 5595 5594 5593 5593 5592 5591 5590 5590 5589 5588 5587 5586 5584 5582 5580 5577 5574 5570 5566 5562 5558 5552 5545 5538 5530 5521 5511 5501 5489 5476 5463 5448 5434 5422 5416 5411 5407 5404 5401